This demonstration page uses our WeatherBlox Daily Observations layout. Learn more.

Left ArrowRight Arrow

44.8408, -93.29828

Hourly Observations for August 9, 2021

Temp ( °F °C ) Dew Point ( °F °C ) Humidity (%) Winds ( mph kmh ) Pressure ( in mb ) Visibility ( mi km ) Precip ( " mm )
12:53 am 00:53 Mostly Cloudy 70 21.1 68 20 93 93 NE 6 9 29.74 1007 10 16 0.00 0.00
1:53 am 01:53 Mostly Cloudy 69 20.6 68 20 96 96 E 5 7 29.74 1007 10 16 0.00 0.00
2:53 am 02:53 Partly Cloudy 69 20.6 68 20 96 96 E 7 11 29.74 1007 9 14 0.00 0.00
3:53 am 03:53 Partly Cloudy 69 20.6 68 20 96 96 ENE 6 9 29.73 1007 9 14 0.00 0.00
4:53 am 04:53 Mostly Cloudy 68 20 67 19.4 96 96 N 5 7 29.75 1008 9 14 0.00 0.00
5:53 am 05:53 Partly Cloudy 68 20 67 19.4 96 96 NE 6 9 29.77 1008 7 11 0.00 0.00
6:49 am 06:49 Partly Cloudy 68 20 66 19 94 94 N 3 6 29.78 1008 7 11 0.00 0.00
6:53 am 06:53 Partly Cloudy 68 20 67 19.4 96 96 Calm 29.78 1009 7 11 0.00 0.00
7:53 am 07:53 Mostly Cloudy 70 21.1 67 19.4 90 90 N 5 7 29.79 1009 9 14 0.00 0.00
8:53 am 08:53 Partly Cloudy 72 22.2 68 20 87 87 Calm 29.80 1009 9 14 0.00 0.00
9:53 am 09:53 Mostly Sunny 76 24.4 67 19.4 74 74 Calm 29.80 1009 9 14 0.00 0.00
10:53 am 10:53 Mostly Sunny 79 26.1 68 20 69 69 Calm 29.81 1009 9 14 0.00 0.00
11:53 am 11:53 Partly Cloudy 82 27.8 67 19.4 60 60 E 13 20 29.81 1009 10 16 0.00 0.00
12:53 pm 12:53 Partly Cloudy 84 28.9 68 20 59 59 E 10 17 29.81 1010 10 16 0.00 0.00
1:53 pm 13:53 Mostly Sunny 83 28.3 67 19.4 59 59 NE 5 7 29.81 1009 10 16 0.00 0.00
2:53 pm 14:53 Mostly Sunny 86 30 68 20 55 55 ESE 13 20 29.79 1009 10 16 0.00 0.00
3:53 pm 15:53 Mostly Sunny 85 29.4 67 19.4 55 55 ESE 10 17 29.79 1009 10 16 0.00 0.00
4:53 pm 16:53 Mostly Sunny 85 29.4 67 19.4 55 55 ESE 8 13 29.78 1009 10 16 0.00 0.00
5:53 pm 17:53 Mostly Sunny 85 29.4 67 19.4 55 55 SSE 9 15 29.79 1009 10 16 0.00 0.00
6:53 pm 18:53 Sunny 83 28.3 67 19.4 59 59 SE 8 13 29.78 1009 10 16 0.00 0.00
7:53 pm 19:53 Sunny 81 27.2 68 20 65 65 SSE 7 11 29.78 1009 10 16 0.00 0.00
8:53 pm 20:53 Clear 78 25.6 68 20 71 71 SSE 7 11 29.80 1009 10 16 0.00 0.00
9:53 pm 21:53 Clear 77 25 68 20 74 74 SSE 7 11 29.81 1009 10 16 0.00 0.00
10:53 pm 22:53 Clear 76 24.4 69 20.6 79 79 SE 6 9 29.82 1010 10 16 0.00 0.00
11:53 pm 23:53 Clear 76 24.4 68 20 77 77 SE 7 11 29.81 1010 10 16 0.00 0.00

Powered by AerisWeather